Printer-friendly version

IAU Minor Planet Center

Minor Planet Center

MPEC 2008-T106: 2008 TO10

The following Minor Planet Electronic Circular may be linked-to from your own Web pages, but must not otherwise be redistributed electronically.

A form allowing access to any MPEC is at the bottom of this page.


Read MPEC 2008-T105 Read MPEC 2008-T107


M.P.E.C. 2008-T106                               Issued 2008 Oct.  9, 16:31 UT

     The Minor Planet Electronic Circulars contain information on unusual
         minor planets and routine data on comets.  They are published
   on behalf of Commission 20 of the International Astronomical Union by the
          Minor Planet Center, Smithsonian Astrophysical Observatory,
                          Cambridge, MA 02138, U.S.A.

             Prepared using the Tamkin Foundation Computer Network

                              MPC@CFA.HARVARD.EDU
          URL http://www.cfa.harvard.edu/iau/mpc.html  ISSN 1523-6714

                                   2008 TO10

Observations:
     K08T10O* C2008 10 08.28730 02 57 47.23 +38 25 22.6          19.4   ET106704
     K08T10O  C2008 10 08.30008 02 57 47.89 +38 25 52.9          19.8   ET106704
     K08T10O  C2008 10 08.31281 02 57 48.58 +38 26 22.8          19.8   ET106704
     K08T10O  C2008 10 08.32626 02 57 49.38 +38 26 54.5          19.6   ET106704
     K08T10O  C2008 10 09.11082 02 58 36.36 +38 57 38.2                 ET106J95
     K08T10O  C2008 10 09.11490 02 58 36.55 +38 57 47.9                 ET106J95
     K08T10O  C2008 10 09.11899 02 58 36.85 +38 57 57.5          19.2 R ET106J95
     K08T10O  C2008 10 09.26592 02 58 46.85 +39 03 46.4          19.2 R ET106854
     K08T10O  C2008 10 09.26881 02 58 46.82 +39 03 56.5          19.6 R ET106854
     K08T10O 5C2008 10 09.28275 02 58 47.66 +39 04 25.9          18.9 R ET106673
     K08T10O 5C2008 10 09.29688 02 58 48.52 +39 05 01.5                 ET106673
     K08T10O  C2008 10 09.31438 02 58 48.82 +39 05 42.6          19.9 V ET106H55
     K08T10O  C2008 10 09.32113 02 58 49.18 +39 05 58.8          19.9 V ET106H55
     K08T10O  C2008 10 09.35269 02 58 51.04 +39 07 13.3                 ET106H36
     K08T10O  C2008 10 09.35754 02 58 51.26 +39 07 24.5          19.1 R ET106H36
     K08T10O  C2008 10 09.36240 02 58 51.52 +39 07 36.0                 ET106H36
     K08T10O  C2008 10 09.36726 02 58 51.80 +39 07 47.6          19.2 R ET106H36
     K08T10O 5C2008 10 09.44896 02 58 56.51 +39 11 01.7                 ET106673
     K08T10O 5C2008 10 09.45602 02 58 56.87 +39 11 18.7                 ET106673

Observer details:
673 Table Mountain Observatory, Wrightwood.  Observer D. Mayes.  0.6-m f/16
    Cassegrain + CCD.
704 Lincoln Laboratory ETS, New Mexico.  Observers M. Bezpalko, D. Torres,
    R. Kracke, G. Spitz, J. Kistler.  Measurers J. Stuart, S. Scruggs.  1.0-m
    f/2.15 reflector + CCD.
854 Sabino Canyon Observatory, Tucson.  Observer J. E. McGaha.  0.36-m f/10.0
    Schmidt-Cassegrain + CCD.
H36 Sandlot Observatory, Scranton.  Observer G. Hug.  0.56-m reflector + CCD.
H55 Astronomical Research Observatory, Charleston.  Observer R. Holmes.
    Measurer H. Devore.  0.81-m f/4.0 astrograph + CCD.
J95 Great Shefford.  Observer P. Birtwhistle.  0.40-m f/6.0 Schmidt-Cassegrain
    + CCD.

Orbital elements:
2008 TO10
Epoch 2008 Nov. 30.0 TT = JDT 2454800.5                 MPC
M   1.27980              (2000.0)            P               Q
n   0.18950103     Peri.   68.84092     +0.44537069     -0.89507973
a   3.0018916      Node   354.55968     +0.71197977     +0.36884783
e   0.5576657      Incl.   13.32162     +0.54289018     +0.25056649
P   5.20           H   19.0           G   0.15           U   9
Residuals in seconds of arc
081008 704  0.1+  0.2+    081009 854  1.5+  1.6-    081009 H36  0.1-  0.2-
081008 704  0.3-  0.2+    081009 854  0.7-  1.6+    081009 H36  0.0   0.2-
081008 704  0.3-  0.2-    081009 673  0.8-  1.2-    081009 H36  0.3+  0.0
081008 704  0.6+  0.3-    081009 673  0.3+  0.5+    081009 673  0.0   0.0
081009 J95  0.1-  0.0     081009 H55  0.2-  0.0     081009 673  0.1-  0.4+
081009 J95  0.5-  0.1+    081009 H55  0.1-  0.2+
081009 J95  0.4+  0.1+    081009 H36  0.4+  0.0

Ephemeris:
2008 TO10                a,e,i = 3.00, 0.56, 13                  q = 1.3278
Date    TT    R. A. (2000) Decl.     Delta      r     Elong.  Phase     V
2008 10 01    02 49.97   +33 46.3    0.557    1.451   135.3    29.1    19.8
2008 10 11    03 00.48   +40 12.3    0.501    1.411   138.1    28.2    19.5
2008 10 21    03 09.39   +46 49.7    0.460    1.378   139.6    27.9    19.2
2008 10 31    03 16.51   +53 05.9    0.434    1.353   139.5    28.4    19.1
2008 11 10    03 22.33   +58 24.1    0.422    1.336   138.6    29.4    19.0
2008 11 20    03 28.35   +62 16.0    0.421    1.328   137.4    30.3    19.0
2008 11 30    03 36.71   +64 26.3    0.428    1.330   136.5    30.7    19.1
2008 12 10    03 49.73   +64 54.3    0.445    1.341   136.1    30.6    19.2
2008 12 20    04 07.77   +63 50.7    0.469    1.361   136.0    30.1    19.3
2008 12 30    04 29.27   +61 31.0    0.502    1.389   135.9    29.5    19.5
2009 01 09    04 52.45   +58 16.5    0.547    1.424   135.1    29.2    19.7
2009 01 19    05 15.77   +54 30.4    0.604    1.467   133.4    29.2    20.0
2009 01 29    05 38.52   +50 32.6    0.676    1.514   130.7    29.6    20.3
2009 02 08    06 00.57   +46 38.9    0.761    1.567   127.0    30.2    20.7
2009 02 18    06 21.85   +42 58.4    0.861    1.623   122.6    30.9    21.1
2009 02 28    06 42.44   +39 35.0    0.975    1.683   117.8    31.4    21.4
2009 03 10    07 02.46   +36 28.9    1.101    1.745   112.7    31.7    21.8

Sonia Keys                   (C) Copyright 2008 MPC           M.P.E.C. 2008-T106

Read MPEC 2008-T105 Read MPEC 2008-T107


MPEC number:

Enter an
MPEC number in one of the following forms:
  • 1997-B01 (the full form)
  • J97B01 (the packed version of the full form)
  • B01 (the abbreviated form)

Valid HTML 4.01!